[[{"header":{"parameterUnit":"m.s-1","parameterCategory":1,"la1":30.2991,"la2":30.254,"lo1":-89.0895,"lo2":-89.0444,"dy":0.0017,"dx":0.0017,"nx":28,"ny":28,"refTime":"2023-09-01T09:00:00:Z","depth":0,"parameterNumber":2,"parameterNumberName":"U-component_of_WINDS"},"data":[0,0,0,0,0,0,0,0,0,0,0,0,0,0,0,0,0,0,0,0,0,0,0,0,0,0,0,0,0,0,0,0,0,0,0,0,0,0,0,0,0,0,0,0,0,0,0,0,0,0,0,0,0,0,0,0,0,0,-1.2458,-1.2458,0,-1.2516,-1.2517,-1.2517,-1.2536,-1.2536,-1.2536,-1.2536,-1.2598,-1.26,-1.2602,0,0,0,0,0,0,0,0,0,0,0,0,0,-1.2366,-1.2368,-1.2457,-1.2458,-1.2459,-1.2516,-1.2517,-1.2517,-1.2536,-1.2536,-1.2536,-1.2535,-1.2597,-1.2599,-1.2602,0,0,0,0,0,0,0,0,0,0,0,0,0,-1.2414,-1.2368,-1.2457,-1.2475,-1.2477,-1.2516,-1.2517,-1.2518,-1.2536,-1.2536,-1.2536,-1.2535,-1.2596,-1.2599,-1.2602,-1.2628,0,0,-1.2611,-1.2612,0,0,0,0,0,0,0,0,-1.2411,-1.2417,-1.2472,-1.2474,-1.2477,-1.2518,-1.2507,-1.2555,-1.2537,-1.2514,-1.2536,-1.2535,-1.2572,-1.2577,-1.2589,-1.263,-1.2633,-1.2611,-1.2613,-1.2614,-1.2615,0,0,0,0,0,0,0,-1.2408,-1.2414,-1.2481,-1.2473,-1.2476,-1.2482,-1.2488,-1.2516,-1.2545,-1.2516,-1.2518,-1.2524,-1.2573,-1.2586,-1.259,-1.2634,-1.2611,-1.2613,-1.2615,-1.2616,-1.2702,-1.2702,0,0,0,0,0,0,-1.2401,-1.2412,-1.2479,-1.2482,-1.2442,-1.2484,-1.2491,-1.2505,-1.2544,-1.255,-1.2524,-1.2525,-1.2581,-1.2587,-1.2592,-1.2626,-1.2614,-1.2617,-1.2618,-1.2701,-1.2702,-1.2702,0,0,0,0,0,0,-1.2399,-1.2407,-1.2476,-1.2447,-1.2457,-1.2486,-1.2502,-1.2507,-1.2519,-1.2551,-1.2556,-1.2532,-1.2581,-1.2588,-1.2619,-1.2628,-1.2618,-1.2621,-1.27,-1.2701,-1.2702,-1.2691,0,0,0,0,0,0,-1.2396,-1.2406,-1.2415,-1.2447,-1.2458,-1.2501,-1.2503,-1.2508,-1.2524,-1.2525,-1.2559,-1.2564,-1.2581,-1.2615,-1.2622,-1.2632,-1.2623,-1.27,-1.2701,-1.2702,-1.2691,-1.2692,-1.2692,0,0,0,0,0,-1.2393,-1.241,-1.2415,-1.2423,-1.247,-1.2501,-1.2507,-1.2526,-1.2525,-1.2535,-1.2555,-1.2563,-1.2626,-1.2617,-1.2626,-1.2637,-1.2699,-1.2701,-1.2702,-1.2691,-1.2691,-1.2692,0,0,0,0,0,0,-1.2377,-1.2414,-1.242,-1.2448,-1.2471,-1.2504,-1.2517,-1.2526,-1.255,-1.2551,-1.2573,-1.2581,-1.261,-1.2627,-1.2616,-1.2664,-1.2663,-1.2666,-1.2652,-1.2653,-1.2654,-1.2649,-1.2625,0,0,0,0,0,-1.2377,-1.2398,-1.243,-1.2451,-1.2463,-1.2488,-1.2502,-1.2515,-1.254,-1.255,-1.2572,-1.2597,-1.2623,-1.2639,-1.2664,-1.2694,-1.2702,-1.2706,-1.2707,-1.2707,-1.2709,-1.2727,-1.2729,-1.2706,-1.2706,-1.2706,0,0,-1.2377,-1.24,-1.2412,-1.2449,-1.2468,-1.2491,-1.2496,-1.2519,-1.2537,-1.2554,-1.2583,-1.2601,-1.2631,-1.2661,-1.2676,-1.2676,-1.2717,-1.2709,-1.2709,-1.271,-1.2729,-1.2731,-1.2733,-1.2707,-1.2707,-1.2707,0,0,-1.2388,-1.2407,-1.2427,-1.2447,-1.2476,-1.2493,-1.2498,-1.253,-1.2542,-1.2573,-1.2586,-1.2608,-1.2651,-1.2672,-1.2688,-1.271,-1.2718,-1.2717,-1.272,-1.2738,-1.2739,-1.2741,-1.2749,-1.2751,-1.2719,-1.2719,-1.2719,0,-1.2384,-1.2418,-1.2437,-1.246,-1.2476,-1.2493,-1.2514,-1.2533,-1.2569,-1.2581,-1.2581,-1.2636,-1.2657,-1.2693,-1.2698,-1.2711,-1.2718,-1.2713,-1.2737,-1.2739,-1.2741,-1.2749,-1.2752,-1.2719,-1.2719,-1.2719,-1.2719,0,-1.2412,-1.2435,-1.2449,-1.2482,-1.2501,-1.2523,-1.2547,-1.2563,-1.2575,-1.2592,-1.2624,-1.265,-1.2681,-1.2691,-1.2703,-1.2729,-1.2729,-1.2733,-1.2732,-1.2743,-1.275,-1.2754,-1.2719,-1.2719,-1.2719,-1.2719,0,0,-1.2413,-1.2459,-1.2463,-1.2479,-1.2514,-1.2533,-1.2557,-1.2586,-1.26,-1.2626,-1.2647,-1.2684,-1.2688,-1.2707,-1.2721,-1.2737,-1.2753,-1.2739,-1.274,-1.2741,-1.2784,-1.278,-1.2783,-1.2759,-1.276,-1.276,-1.2782,0,-1.2429,-1.247,-1.2489,-1.2523,-1.2546,-1.2563,-1.2584,-1.2608,-1.2625,-1.2648,-1.2668,-1.2694,-1.2698,-1.2709,-1.2725,-1.2747,-1.2762,-1.2746,-1.278,-1.2781,-1.2771,-1.2787,-1.2783,-1.2802,-1.2785,-1.2786,-1.2786,0,-1.2452,-1.2476,-1.2512,-1.2545,-1.2555,-1.2573,-1.2603,-1.2624,-1.2653,-1.2665,-1.2686,-1.27,-1.2727,-1.2726,-1.2764,-1.2753,-1.2769,-1.2782,-1.2783,-1.2786,-1.2783,-1.2791,-1.2808,-1.2811,-1.2791,-1.279,-1.279,0,-1.2449,-1.2491,-1.2518,-1.2532,-1.2571,-1.2583,-1.26,-1.2628,-1.2646,-1.2672,-1.2684,-1.2714,-1.273,-1.2754,-1.2776,-1.2773,-1.2813,-1.2813,-1.2824,-1.2823,-1.2831,-1.283,-1.285,-1.2842,-1.2842,-1.2842,-1.2842,0,-1.2464,-1.2485,-1.2518,-1.2534,-1.2559,-1.2582,-1.2607,-1.2625,-1.265,-1.2672,-1.2689,-1.2709,-1.2738,-1.2762,-1.278,-1.281,-1.2817,-1.2828,-1.2833,-1.2826,-1.2825,-1.2836,-1.2835,-1.2842,-1.2842,-1.2842,-1.2842,0,-1.2464,-1.2487,-1.2518,-1.2552,-1.2562,-1.2578,-1.2609,-1.2626,-1.2646,-1.2673,-1.2681,-1.2711,-1.2741,-1.2766,-1.2805,-1.2817,-1.2848,-1.2853,-1.2837,-1.284,-1.285,-1.2848,-1.2878,-1.2883,-1.2871,-1.2871,-1.2871,0,-1.2472,-1.2489,-1.2525,-1.254,-1.2557,-1.2581,-1.2599,-1.2623,-1.2641,-1.2676,-1.2689,-1.272,-1.2746,-1.2793,-1.2819,-1.2849,-1.2856,-1.2864,-1.286,-1.2854,-1.2856,-1.2854,-1.2856,-1.2864,-1.2864,-1.2864,-1.2864,0,-1.2483,-1.2494,-1.2518,-1.2546,-1.2567,-1.2591,-1.2615,-1.2627,-1.2656,-1.2676,-1.2706,-1.2726,-1.2766,-1.2797,-1.283,-1.285,-1.2862,-1.2865,-1.2869,-1.2862,-1.2853,-1.2858,-1.2838,-1.2864,-1.2864,-1.2864,-1.2864,-1.2864,-1.2487,-1.2503,-1.2531,-1.2558,-1.2579,-1.2602,-1.262,-1.2642,-1.2667,-1.2701,-1.2714,-1.2745,-1.2775,-1.2821,-1.2841,-1.2866,-1.2868,-1.2874,-1.2876,-1.2877,-1.2876,-1.2849,-1.2873,-1.2873,-1.2873,-1.2873,-1.2873,0,-1.2499,-1.2518,-1.2543,-1.2576,-1.2598,-1.2607,-1.2635,-1.2653,-1.268,-1.2706,-1.2731,-1.2767,-1.2797,-1.2826,-1.2858,-1.2873,-1.288,-1.2881,-1.288,-1.2884,-1.2872,-1.2865,-1.2875,-1.2875,-1.2875,-1.2875,-1.2875,-1.2875,-1.2507,-1.2535,-1.2549,-1.2588,-1.2608,-1.2637,-1.2653,-1.2674,-1.2696,-1.2734,-1.2759,-1.2778,-1.2806,-1.2841,-1.2869,-1.2877,-1.2888,-1.2888,-1.2897,-1.2885,-1.2885,-1.2884,-1.2878,-1.289,-1.289,-1.2907,-1.2907,-1.2907]},{"header":{"parameterUnit":"m.s-1","parameterCategory":1,"la1":30.2991,"la2":30.254,"lo1":-89.0895,"lo2":-89.0444,"dy":0.0017,"dx":0.0017,"nx":28,"ny":28,"refTime":"2023-09-01T09:00:00:Z","depth":0,"parameterNumber":3,"parameterNumberName":"V-component_of_WINDS"},"data":[0,0,0,0,0,0,0,0,0,0,0,0,0,0,0,0,0,0,0,0,0,0,0,0,0,0,0,0,0,0,0,0,0,0,0,0,0,0,0,0,0,0,0,0,0,0,0,0,0,0,0,0,0,0,0,0,0,0,3.2958,3.2957,0,3.2911,3.291,3.291,3.2835,3.2834,3.2832,3.2831,3.2782,3.2782,3.2782,0,0,0,0,0,0,0,0,0,0,0,0,0,3.2984,3.2984,3.2958,3.2957,3.2957,3.2911,3.291,3.291,3.2835,3.2834,3.2832,3.283,3.2782,3.2782,3.2782,0,0,0,0,0,0,0,0,0,0,0,0,0,3.2959,3.2984,3.2958,3.2914,3.291,3.2911,3.291,3.2909,3.2836,3.2834,3.2832,3.283,3.2782,3.2782,3.2782,3.2822,0,0,3.2782,3.2782,0,0,0,0,0,0,0,0,3.296,3.2958,3.2921,3.2917,3.2912,3.2877,3.2901,3.288,3.2836,3.2864,3.2831,3.2829,3.2815,3.2812,3.2808,3.282,3.2818,3.2782,3.2782,3.2782,3.2782,0,0,0,0,0,0,0,3.2962,3.2959,3.2939,3.2921,3.2915,3.2897,3.2891,3.2897,3.2851,3.2861,3.2856,3.2851,3.2812,3.2808,3.2806,3.2817,3.2782,3.2782,3.2782,3.2782,3.2861,3.2863,0,0,0,0,0,0,3.297,3.2961,3.2941,3.2938,3.2932,3.2898,3.2892,3.289,3.2851,3.2843,3.2853,3.2848,3.2809,3.2806,3.2804,3.2848,3.2782,3.2781,3.2781,3.2858,3.2861,3.2863,0,0,0,0,0,0,3.2971,3.2969,3.2943,3.2948,3.2943,3.29,3.2899,3.289,3.2886,3.2845,3.2836,3.2857,3.2807,3.2804,3.2818,3.2846,3.2781,3.2781,3.2856,3.2859,3.2862,3.2938,0,0,0,0,0,0,3.2972,3.297,3.2984,3.2949,3.2943,3.2958,3.2901,3.2891,3.2886,3.2879,3.2846,3.2839,3.2806,3.2819,3.2818,3.2844,3.2781,3.2853,3.2857,3.2861,3.2932,3.2943,3.2952,0,0,0,0,0,3.2973,3.3007,3.2985,3.2983,3.296,3.2959,3.2956,3.2917,3.2889,3.2903,3.2877,3.284,3.2844,3.2821,3.282,3.2846,3.2851,3.2856,3.2861,3.2928,3.2941,3.2952,0,0,0,0,0,0,3.3046,3.3001,3.2977,3.3,3.2984,3.2947,3.2963,3.2932,3.2923,3.2917,3.2869,3.2863,3.2883,3.2866,3.2842,3.2884,3.2842,3.2847,3.2893,3.2905,3.2915,3.2917,3.2781,0,0,0,0,0,3.3065,3.3067,3.3029,3.3053,3.3046,3.3007,3.3005,3.2977,3.2958,3.295,3.2925,3.2909,3.2906,3.2905,3.29,3.2931,3.2922,3.2949,3.2958,3.2967,3.2971,3.2986,3.2997,3.2879,3.2879,3.2879,0,0,3.3103,3.3079,3.3083,3.3067,3.3051,3.3055,3.3001,3.3007,3.301,3.2951,3.2963,3.2945,3.2923,3.2946,3.2954,3.2932,3.3002,3.2973,3.298,3.2979,3.2992,3.3003,3.3013,3.2882,3.2882,3.2881,0,0,3.3174,3.3157,3.3175,3.3161,3.3139,3.3113,3.3118,3.3085,3.3071,3.3082,3.3039,3.3042,3.3038,3.3024,3.3017,3.3087,3.3053,3.3088,3.3138,3.3153,3.3162,3.317,3.3195,3.3204,3.3092,3.3092,3.3092,0,3.3224,3.3229,3.3189,3.3198,3.3192,3.3141,3.3159,3.3148,3.3125,3.3122,3.3098,3.3094,3.3075,3.3094,3.3112,3.3108,3.3112,3.3089,3.3164,3.3172,3.3179,3.3202,3.3211,3.3097,3.3096,3.3096,3.3095,0,3.3291,3.3296,3.3313,3.3293,3.3289,3.3303,3.3266,3.3267,3.3241,3.3218,3.3231,3.3208,3.3198,3.3201,3.3174,3.3217,3.3204,3.3173,3.313,3.3195,3.3215,3.3224,3.3103,3.3101,3.31,3.3099,0,0,3.3404,3.3363,3.337,3.3361,3.3334,3.3336,3.3349,3.334,3.3342,3.3329,3.3338,3.3338,3.331,3.3302,3.3274,3.3288,3.3345,3.3255,3.3254,3.3272,3.339,3.3412,3.3423,3.3323,3.3325,3.3326,3.3392,0,3.3468,3.3487,3.3452,3.3479,3.3482,3.3435,3.3446,3.3431,3.3411,3.3411,3.3389,3.3389,3.3352,3.3347,3.3359,3.3335,3.3368,3.333,3.3331,3.3331,3.3336,3.3434,3.3456,3.3519,3.34,3.3401,3.3402,0,3.3545,3.3537,3.3564,3.3537,3.3537,3.3547,3.3537,3.3538,3.3521,3.3505,3.3498,3.3466,3.3477,3.3437,3.3452,3.3427,3.3426,3.3415,3.3416,3.3413,3.3369,3.3432,3.3538,3.3547,3.3414,3.3413,3.3412,0,3.3623,3.3619,3.3635,3.3629,3.3597,3.3606,3.3593,3.3574,3.3571,3.3563,3.3561,3.3554,3.355,3.3546,3.3513,3.3487,3.3532,3.3489,3.3519,3.352,3.3528,3.3528,3.3635,3.3531,3.353,3.353,3.353,0,3.3698,3.3716,3.3669,3.3679,3.3699,3.366,3.3681,3.3663,3.3647,3.3653,3.3613,3.3619,3.3577,3.3579,3.3554,3.357,3.3568,3.3556,3.3549,3.3559,3.356,3.3555,3.355,3.3533,3.3532,3.3532,3.3531,0,3.3786,3.3756,3.377,3.3741,3.3734,3.3749,3.3724,3.3732,3.371,3.3718,3.3718,3.3684,3.3685,3.3653,3.3646,3.363,3.3656,3.3642,3.3662,3.3657,3.3688,3.3685,3.3794,3.3806,3.3696,3.3697,3.3698,0,3.3835,3.3848,3.382,3.3821,3.3811,3.3814,3.3811,3.3775,3.3774,3.3757,3.3767,3.3765,3.3761,3.3764,3.3739,3.3735,3.3719,3.3758,3.3718,3.3728,3.3718,3.3718,3.3719,3.3765,3.3767,3.3768,3.3769,0,3.3924,3.3909,3.3907,3.3901,3.3899,3.3892,3.3883,3.3886,3.3847,3.3848,3.3849,3.3846,3.3841,3.3839,3.383,3.3818,3.3787,3.3782,3.3788,3.3798,3.3808,3.3802,3.3683,3.3779,3.3778,3.3777,3.3777,3.3776,3.3993,3.4003,3.3985,3.3985,3.3974,3.3967,3.3974,3.3954,3.3953,3.3946,3.3926,3.393,3.3914,3.39,3.3891,3.3894,3.3874,3.3884,3.3886,3.3889,3.3894,3.381,3.3892,3.3892,3.3892,3.3891,3.3891,0,3.4079,3.4066,3.4066,3.4055,3.4055,3.4028,3.4017,3.4019,3.4023,3.4011,3.4009,3.401,3.4009,3.3986,3.3982,3.3989,3.3975,3.3989,3.3987,3.3985,3.3912,3.3906,3.4001,3.4001,3.4001,3.4001,3.4001,3.4001,3.4123,3.4139,3.4122,3.4133,3.412,3.4124,3.412,3.4113,3.4104,3.4108,3.4107,3.4092,3.4075,3.4071,3.4069,3.4062,3.4062,3.4081,3.4069,3.4001,3.399,3.398,3.3974,3.4081,3.4082,3.4142,3.4142,3.4143]}]]